SL-16 DEB, 22620

Orbit data source: Space-Track

SL-16 DEB, 22620 is space debris in LEO originally from a launch on Fri, 26 Mar 1993 UTC launched from the Tyuratam Missile And Space Complex (TTMTR). Debris objects in space refer to the collection of defunct objects orbiting the Earth. Examples of debris include non-operational satellites, rocket bodies, and fragments generated from explosions, collisions, or faulty payload assembly.

Loading next visibility...
Identifier
22620, 1993-016AE
Orbit
LEO
Country
Flag of CISCIS
Related business
Manufacturer
Unknown
Mission
Spacecraft
Bus & Motor
Unknown
Mass
Unknown
Launch date (UTC)
1993-03-26 (33 years ago)
Launch vehicle
Unknown
Launch site
Tyuratam Missile And Space Complex (TTMTR)
Object type
Payload
Rocket body
Debris
Shape & HBR
Unknown shape, 0.3 m
Radar Cross Section
Medium (>0.1 m² and <1 m²)

Expand to show TLE details & history
Last TLE update: 11 hours ago

TLE from 11 hours ago
0 SL-16 DEB
1 22620U 93016AE  25292.29403713  .00000055  00000-0  82822-4 0  9996
2 22620  71.0063 316.5399 0135052 200.0298 259.3062 13.84102132644202
Epoch: 2025-10-19T07:03Z
TLE epoch observation values (Epoch: 2025-10-19T07:03:24.808Z)
Latitude
69.60869°
Longitude
-64.42254°
Altitude
980.522 km
Speed
7.358 km/s
True Right ascension
04h 37m 46s
True Declination
69° 29' 58"
Sunlit
Object was in daylight at epoch
Visualization orbit readout
Latitude
Unknown
Longitude
Unknown
Altitude
Unknown
Speed
Unknown
Apparent Right ascension
Unknown
Apparent Declination
Unknown
Sunlit
N/A
Visualization observer readout
Local Sidereal Time
12:28:33
Azimuth
Unknown
Elevation
Unknown
Doppler factor
Unknown
Orbital elements
Apogee altitude
1,046.259 km
Perigee altitude
848.395 km
Semi-major axis
7,325.464 km
Eccentricity
0.01351
Inclination
71.0063°
RAAN
316.5399°
Arg. of periapsis
200.0298°
True anomaly
257.79042°
Mean anomaly
259.3062°
Eccentric anomaly
258.54781°
Mean motion
3.46171 °/min
Orbital period
103.99 mins
BSTAR
0.000082822
Loading maneuver chart data...
Computing Atmospheric mass density...
Loading historical data...
Loading historical data...
Loading historical data...
Loading historical data...
Loading historical data...
Loading historical data...
Loading historical data...

Documentation

Showing up to 5 results
|